N327DA KBHM-KBHM

Flight info

Callsign N327DA
Flight time 0h 14m
Altitude VFR
Route PATTERN
Aircraft DA40/L-DOV/C

Departure

Time 2026-05-03 20:41
Airport Birmingham-Shuttlesworth International Airport (KBHM)

Arrival

Time 2026-05-03 20:56
Airport Birmingham-Shuttlesworth International Airport (KBHM)
Time Latitude Longitude Altitude Speed Heading
2026-05-03 20:36 33.56641 -86.74447 625 ft 0 kts 272°
2026-05-03 20:36 33.56641 -86.74497 624 ft 13 kts 272°
2026-05-03 20:36 33.56606 -86.74590 623 ft 16 kts 182°
2026-05-03 20:36 33.56469 -86.74591 620 ft 22 kts 178°
2026-05-03 20:37 33.56326 -86.74590 616 ft 20 kts 182°
2026-05-03 20:37 33.56167 -86.74590 610 ft 25 kts 182°
2026-05-03 20:37 33.56055 -86.74590 609 ft 10 kts 177°
2026-05-03 20:37 33.55961 -86.74591 608 ft 17 kts 181°
2026-05-03 20:38 33.55831 -86.74590 604 ft 15 kts 182°
2026-05-03 20:38 33.55712 -86.74590 603 ft 19 kts 177°
2026-05-03 20:38 33.55593 -86.74588 602 ft 20 kts 178°
2026-05-03 20:38 33.55469 -86.74590 598 ft 17 kts 183°
2026-05-03 20:39 33.55418 -86.74591 596 ft 0 kts 181°
2026-05-03 20:39 33.55375 -86.74628 595 ft 15 kts 271°
2026-05-03 20:40 33.55414 -86.74724 597 ft 15 kts 359°
2026-05-03 20:40 33.55682 -86.74724 602 ft 63 kts 358°
2026-05-03 20:40 33.56195 -86.74699 697 ft 81 kts 358°
2026-05-03 20:40 33.56785 -86.74682 873 ft 84 kts 356°
2026-05-03 20:41 33.57353 -86.74696 1120 ft 77 kts 348°
2026-05-03 20:41 33.57789 -86.74923 1363 ft 76 kts 310°
2026-05-03 20:41 33.57892 -86.75623 1494 ft 92 kts 265°
2026-05-03 20:41 33.57623 -86.76288 1707 ft 92 kts 238°
2026-05-03 20:42 33.57234 -86.76948 1744 ft 98 kts 243°
2026-05-03 20:42 33.56803 -86.77595 1745 ft 104 kts 233°
2026-05-03 20:42 33.56372 -86.78241 1740 ft 93 kts 240°
2026-05-03 20:42 33.56004 -86.78857 1660 ft 92 kts 235°
2026-05-03 20:43 33.55393 -86.79162 1317 ft 115 kts 169°
2026-05-03 20:43 33.54886 -86.78466 1000 ft 114 kts 94°
2026-05-03 20:43 33.55166 -86.77685 807 ft 97 kts 52°
2026-05-03 20:43 33.55547 -86.77036 623 ft 93 kts 50°
2026-05-03 20:44 33.55887 -86.76459 602 ft 78 kts 56°
2026-05-03 20:44 33.56214 -86.75881 723 ft 89 kts 46°
2026-05-03 20:44 33.56567 -86.75268 966 ft 89 kts 51°
2026-05-03 20:44 33.56914 -86.74670 1238 ft 86 kts 49°
2026-05-03 20:45 33.57250 -86.74081 1491 ft 85 kts 47°
2026-05-03 20:45 33.57360 -86.73353 1657 ft 104 kts 105°
2026-05-03 20:45 33.56907 -86.72746 1714 ft 95 kts 154°
2026-05-03 20:45 33.56284 -86.72731 1622 ft 90 kts 212°
2026-05-03 20:46 33.55835 -86.73227 1530 ft 93 kts 239°
2026-05-03 20:46 33.55471 -86.73903 1472 ft 99 kts 246°
2026-05-03 20:46 33.55124 -86.74573 1575 ft 90 kts 243°
2026-05-03 20:46 33.54774 -86.75209 1612 ft 94 kts 236°
2026-05-03 20:47 33.54335 -86.75775 1672 ft 94 kts 231°
2026-05-03 20:47 33.53900 -86.76393 1590 ft 97 kts 239°
2026-05-03 20:47 33.53534 -86.77065 1522 ft 96 kts 243°
2026-05-03 20:47 33.53184 -86.77730 1556 ft 95 kts 241°
2026-05-03 20:48 33.52852 -86.78417 1585 ft 92 kts 249°
2026-05-03 20:48 33.52937 -86.79033 1659 ft 79 kts 316°
2026-05-03 20:48 33.53497 -86.79292 1480 ft 96 kts 352°
2026-05-03 20:48 33.54182 -86.79082 1261 ft 110 kts 20°
2026-05-03 20:49 33.54730 -86.78444 1036 ft 107 kts 42°
2026-05-03 20:49 33.55131 -86.77733 858 ft 98 kts 47°
2026-05-03 20:49 33.55522 -86.77084 653 ft 96 kts 49°
2026-05-03 20:49 33.55872 -86.76470 607 ft 81 kts 46°
2026-05-03 20:50 33.56182 -86.75937 651 ft 83 kts 45°
2026-05-03 20:50 33.56534 -86.75333 819 ft 91 kts 50°
2026-05-03 20:50 33.56875 -86.74690 1066 ft 87 kts 52°
2026-05-03 20:50 33.57180 -86.74084 1308 ft 86 kts 51°
2026-05-03 20:51 33.57326 -86.73364 1503 ft 99 kts 94°
2026-05-03 20:51 33.56958 -86.72666 1632 ft 104 kts 142°
2026-05-03 20:51 33.56291 -86.72510 1720 ft 103 kts 204°
2026-05-03 20:51 33.55752 -86.72973 1707 ft 92 kts 237°
2026-05-03 20:52 33.55372 -86.73565 1607 ft 88 kts 240°
2026-05-03 20:52 33.55059 -86.74176 1462 ft 84 kts 245°
2026-05-03 20:52 33.54716 -86.74733 1412 ft 81 kts 236°
2026-05-03 20:52 33.54378 -86.75260 1379 ft 83 kts 240°
2026-05-03 20:53 33.54052 -86.75841 1438 ft 82 kts 242°
2026-05-03 20:53 33.53724 -86.76356 1436 ft 75 kts 239°
2026-05-03 20:53 33.53390 -86.76854 1418 ft 83 kts 238°
2026-05-03 20:53 33.53051 -86.77440 1539 ft 87 kts 245°
2026-05-03 20:54 33.53149 -86.78041 1628 ft 79 kts 317°
2026-05-03 20:54 33.54228 -86.78504 1335 ft 80 kts 354°
2026-05-03 20:54 33.54749 -86.78224 1057 ft 87 kts 26°
2026-05-03 20:55 33.55164 -86.77699 861 ft 86 kts 40°
2026-05-03 20:55 33.55511 -86.77100 655 ft 87 kts 49°
2026-05-03 20:55 33.55831 -86.76540 603 ft 74 kts 45°
2026-05-03 20:55 33.56102 -86.76075 612 ft 62 kts 54°
2026-05-03 20:56 33.56319 -86.75671 628 ft 48 kts 72°
2026-05-03 20:56 33.56350 -86.75464 626 ft 7 kts 83°
2026-05-03 20:56 33.56372 -86.75404 622 ft 8 kts 63°
2026-05-03 20:56 33.56419 -86.75330 621 ft 14 kts 53°
2026-05-03 20:57 33.56486 -86.75215 625 ft 19 kts 58°
2026-05-03 20:57 33.56560 -86.75078 622 ft 22 kts 56°
2026-05-03 20:57 33.56602 -86.74931 623 ft 18 kts 98°
2026-05-03 20:57 33.56647 -86.74790 626 ft 19 kts 54°
2026-05-03 20:58 33.56645 -86.74656 627 ft 18 kts 93°
2026-05-03 20:58 33.56644 -86.74484 624 ft 22 kts 85°
2026-05-03 20:58 33.56640 -86.74358 627 ft 10 kts 90°